Regional Weather Roundup
Issued by NWS Cleveland, OH

Home | Current Version | Previous Version | Graphics & Text | Print | Product List | Glossary On
Versions: 1 2 3 4 5 6 7 8 9 10 11 12 13 14 15 16 17 18 19 20 21 22 23 24 25 26 27 28 29 30 31 32 33 34 35 36 37 38 39 40 41 42 43 44 45 46 47 48 49 50
000
ASUS41 KCLE 240812
RWRCLE
OHIO REGIONAL WEATHER ROUNDUP
NATIONAL WEATHER SERVICE WILMINGTON, OH
400 AM EDT THU MAY 24 2018

NOTE: "FAIR" INDICATES FEW OR NO CLOUDS BELOW 12,000 FEET WITH NO
SIGNIFICANT WEATHER AND/OR OBSTRUCTIONS TO VISIBILITY.

OHZ001>008-015>018-024>027-034-035-043-044-240900-
   NORTHWEST OHIO

CITY           SKY/WX    TMP DP  RH WIND       PRES   REMARKS
DEFIANCE       FAIR      54  51  90 CALM      30.20S
FINDLAY        FAIR      55  51  86 CALM      30.19S
TOLEDO EXPRESS FAIR      54  53  97 W3        30.19F
TOLEDO EXEC    FAIR      56  49  77 CALM      30.20S
LIMA           FAIR      55  51  86 CALM      30.20S
$$

OHZ009>014-019>023-028>033-038-089-240900-
   NORTHEAST OHIO

CITY           SKY/WX    TMP DP  RH WIND       PRES   REMARKS
CLE-HOPKINS    FAIR      55  51  86 CALM      30.22S
CLE-LAKEFRONT  FAIR      59  52  77 S5        30.19S
CUY CO. ARPT   NOT AVBL
LORAIN-ELYRIA  FAIR      53  48  83 VRB6      30.21S
ASHTABULA      FAIR      49  49 100 E3        30.21S
AKRON-CANTON   FAIR      54  49  83 CALM      30.21S
WOOSTER        FAIR      51  48  89 CALM      30.22S
MANSFIELD      FAIR      52  49  89 CALM      30.21F
YOUNGSTOWN     FAIR      50  49  96 CALM      30.20F
$$

OHZ042-051>053-060>062-070>072-077>081-240900-
  SOUTHWEST OHIO

CITY           SKY/WX    TMP DP  RH WIND       PRES   REMARKS
CINC-COVINGTON FAIR      63  56  78 E5        30.17S
CINC-LUNKEN    FAIR      57  57 100 CALM      30.18F
HAMILTON       FAIR      58  57  97 CALM      30.18F
DAYTON         FAIR      59  52  77 E5        30.20F
WRIGHT-PAT AFB FOG       55  52  88 CALM      30.19S VSB 7/8
DAYTON GENERAL FAIR      57  52  83 NE7       30.18F
WILMINGTON     FAIR      56  56 100 NE8       30.19S
$$

OHZ036-037-039>041-045>050-054>059-063>069-073>076-082>088-240900-
  CENTRAL AND SOUTHEAST OHIO

CITY           SKY/WX    TMP DP  RH WIND       PRES   REMARKS
COLUMBUS       FAIR      58  51  78 CALM      30.18F
OSU AIRPORT    FAIR      58  51  78 CALM      30.19F
BOLTON FIELD   FAIR      57  54  89 CALM      30.20S
RICKENBACK AFB FAIR      56  53  89 MISG      30.19S
NEWARK         FAIR      53  52  96 CALM      30.20S
MARION         FAIR      53  51  93 CALM      30.20F
LANCASTER      FAIR      53  53 100 CALM      30.20S
ZANESVILLE     FAIR      53  51  93 CALM      30.20S
NEW PHILLY     FAIR      52  51  97 CALM      30.22S
$$




USA.gov is the U.S. government's official web portal to all federal, state and local government web resources and services.